Regional Weather Roundup
Issued by NWS Nashville, TN

Home | Current Version | Previous Version | Text Only | Print | Product List | Glossary On
Versions: 1 2 3 4 5 6 7 8 9 10 11 12 13 14 15 16 17 18 19 20 21 22 23 24 25 26 27 28 29 30 31 32 33 34 35 36 37 38 39 40 41 42 43 44 45 46 47 48 49 50
000
ASUS44 KOHX 232310
RWROHX
MIDDLE TENNESSEE HOURLY WEATHER ROUNDUP
NATIONAL WEATHER SERVICE NASHVILLE TN
600 PM CDT FRI JUN 23 2017

NOTE: "FAIR" INDICATES FEW OR NO CLOUDS BELOW 12,000 FEET WITH
NO SIGNIFICANT WEATHER AND/OR OBSTRUCTIONS TO VISIBILITY.

* THESE REPORTS ARE NOT UNDER NWS QUALITY CONTROL AND MAY NOT
  REPORT WEATHER SUCH AS PRECIPITATION AND FOG.


TNZ005>011-023>034-057-059-062>066-078-080-240000
...NORTHERN MIDDLE TENNESSEE...

CITY           SKY/WX    TMP DP  RH WIND       PRES   REMARKS
CLARKSVILLE    MOSUNNY   81  72  74 W9G18     29.75R
CROSSVILLE     LGT RAIN  71  69  93 SW10G21   29.83R FOG
GALLATIN       CLOUDY    79  75  89 VRB6      29.78R
NASHVILLE      CLOUDY    81  73  76 W12G23    29.77R
PORTLAND       CLOUDY    77  73  88 W10G20    29.75R
SMYRNA         CLOUDY    80  75  84 SW14      29.78R
SPARTA         CLOUDY    73  73 100 SW10G21   29.77R FOG
SPRINGFIELD    PTSUNNY   81  73  78 W15G22    29.75R
WEST NASHVILLE PTSUNNY   81  75  83 W10       29.74R
$$
TNZ056-058-060-061-075>077-079-093>097-240000
...SOUTHERN MIDDLE TENNESSEE...

CITY           SKY/WX    TMP DP  RH WIND       PRES   REMARKS
COLUMBIA       PTSUNNY   79  75  89 SW10      29.78R
FAYETTEVILLE   CLOUDY    73  73 100 SW10G17   29.84R FOG
MCMINNVILLE    CLOUDY    73  73 100 SW8       29.81R
MURFREESBORO   CLOUDY    78  72  82 SW12      29.78
PULASKI        CLOUDY    75  73  94 SW7       29.82S
SHELBYVILLE    CLOUDY    75  73  94 SW10      29.82R
TULLAHOMA      CLOUDY    73  72  94 SW15      29.85R
WINCHESTER     CLOUDY    73  72  94 SW10        N/A
$$


...KEY TO REMARKS...
VSB - VISIBILITY IN MILES
WCI - WIND CHILL INDEX
HX  - HEAT INDEX




USA.gov is the U.S. government's official web portal to all federal, state and local government web resources and services.